Location: Songkhla
(7.2000°N, 100.6000°E)
Time: 20:36:21
(UTC+07:00)

Cosmos 1959 Rocket - Pass Details

Date: 16 April 2026
Orbit: 946 x 997 km, 82.9° (Epoch: 20 May)

Event Time Altitude Azimuth Distance (km) Brightness Sun altitude
Rises 20:16:52 0° 184° (S) 3,698 7.4 -27.6°
Enters shadow 20:18:52 - 184° (S) 2,944 6.9 -28.1°
Exits shadow 20:23:27 43° 187° (S) 1,358 5.1 -29.2°
Maximum altitude 20:25:43 86° 274° (W) 1,001 4.4 -29.7°
Drops below altitude 10° 20:32:04 10° 2° (N) 2,754 7.0 -31.3°
Sets 20:34:35 0° 3° (N) 3,700 7.7 -31.9°
